Weather History for Hoquiam, WA

Change the Weather History Date:

Saturday, October 6, 2012

  Actual Average Record
Temperature  
Mean Temperature 60 °F 55 °F  
Max Temperature 77 °F 62 °F 81 °F (1987)
Min Temperature 42 °F 47 °F 36 °F (1955)
Degree Days  
Heating Degree Days 6 10  
Month to date heating degree days 58  
Cooling Degree Days 0 0  
Month to date cooling degree days 0  
Year to date cooling degree days 23  
Growing Degree Days 10 (Base 50)    
Moisture  
Dew Point 35 °F    
Average Humidity 49    
Maximum Humidity 79    
Minimum Humidity 13    
Precipitation  
Precipitation 0.00 in 0.15 in 1.31 in (1981)
Month to date precipitation 0.77  
Year to date precipitation 40.66  
Sea Level Pressure  
Sea Level Pressure 30.16 in    
Wind  
Wind Speed 7 mph (ENE)    
Max Wind Speed 15 mph    
Max Gust Speed 17 mph    
Visibility 10 miles    
Events      
T = Trace of Precipitation, MM = Missing Value Source: NWS Daily Summary

Daily Weather History Graph

Daily Weather History Graph

Search for Another Location

Airport:

Trip Planner

Search our weather history database for the weather conditions in past years. The results will help you decide how hot, cold, wet, or windy it might be!

Date:

Astronomy

Oct. 06, 2012 Rise Set
Actual Time 7:22 AM PDT 6:44 PM PDT
Civil Twilight 6:51 AM PDT 7:14 PM PDT
Nautical Twilight 6:16 AM PDT 7:49 PM PDT
Astronomical Twilight 5:40 AM PDT 8:25 PM PDT
Moon 10:48 PM PDT (10/6) 1:38 PM PDT (10/6)
Length of Visible Light 12h 23m
Length of Day
11h 22m
Waning Gibbous, 64% of the Moon is Illuminated
Oct 6
Waning Gibbous
Oct 8
Last Quarter
Oct 15
New
Oct 21
First Quarter
Oct 29
Full

Hourly Weather History & Observations

Time (PDT) Temp. Windchill Dew Point Humidity Pressure Visibility Wind Dir Wind Speed Gust Speed Precip Events Conditions
12:53 AM 53.1 °F - 30.9 °F 43% 30.21 in 10.0 mi NE 3.5 mph - N/A   Clear
1:53 AM 51.1 °F - 37.9 °F 61% 30.22 in 10.0 mi East 5.8 mph - N/A   Clear
2:53 AM 50.0 °F - 34.0 °F 54% 30.21 in 10.0 mi ENE 4.6 mph - N/A   Clear
3:53 AM 48.9 °F - 34.0 °F 56% 30.20 in 10.0 mi NE 4.6 mph - N/A   Clear
4:53 AM 46.0 °F 42.5 °F 36.0 °F 68% 30.20 in 10.0 mi ENE 6.9 mph - N/A   Clear
5:53 AM 44.1 °F 41.5 °F 36.0 °F 73% 30.20 in 10.0 mi ENE 4.6 mph - N/A   Clear
6:53 AM 43.0 °F 37.7 °F 35.1 °F 74% 30.21 in 10.0 mi East 9.2 mph - N/A   Clear
7:53 AM 42.1 °F 36.6 °F 36.0 °F 79% 30.20 in 10.0 mi ENE 9.2 mph - N/A   Clear
8:53 AM 46.9 °F - 37.0 °F 68% 30.21 in 5.0 mi ENE 9.2 mph - N/A   Haze
9:53 AM 54.0 °F - 39.0 °F 57% 30.22 in 10.0 mi ENE 9.2 mph - N/A   Clear
10:53 AM 59.0 °F - 37.9 °F 46% 30.20 in 10.0 mi East 11.5 mph - N/A   Clear
11:53 AM 66.0 °F - 37.0 °F 34% 30.19 in 10.0 mi East 15.0 mph - N/A   Clear
12:53 PM 72.0 °F - 28.9 °F 20% 30.18 in 10.0 mi ENE 13.8 mph - N/A   Clear
1:53 PM 72.0 °F - 30.9 °F 22% 30.17 in 10.0 mi East 11.5 mph - N/A   Clear
2:53 PM 70.0 °F - 39.0 °F 32% 30.14 in 10.0 mi ESE 8.1 mph - N/A   Clear
3:53 PM 77.0 °F - 21.9 °F 13% 30.12 in 10.0 mi NNE 9.2 mph 17.3 mph N/A   Clear
4:53 PM 75.9 °F - 25.0 °F 15% 30.11 in 10.0 mi NE 10.4 mph - N/A   Clear
5:53 PM 72.0 °F - 28.0 °F 20% 30.09 in 10.0 mi ENE 5.8 mph - N/A   Clear
6:53 PM 61.0 °F - 48.0 °F 62% 30.09 in 10.0 mi Calm Calm - N/A   Clear
7:53 PM 57.0 °F - 48.9 °F 74% 30.09 in 10.0 mi SE 3.5 mph - N/A   Clear
8:53 PM 57.2 °F - 39.2 °F 51% 30.08 in 10.0 mi NNE 3.5 mph - N/A   Clear
9:53 PM 54.0 °F - 39.0 °F 57% 30.09 in 10.0 mi NE 4.6 mph - N/A   Clear
10:53 PM 52.0 °F - 37.9 °F 59% 30.09 in 10.0 mi ENE 5.8 mph - N/A   Clear
11:53 PM 57.9 °F - 32.0 °F 37% 30.08 in 10.0 mi NNE 5.8 mph - N/A   Clear